Terminal Aerodrome Forecast
Issued by NWS

Home | Current Version | Previous Version | Text Only | Print | Product List | Glossary On
Versions: 1 2 3 4 5 6 7 8 9 10 11 12 13 14 15 16
000
FTUS43 KEAX 021720
TAFSTJ
TAF
KSTJ 021720Z 0218/0318 19012KT P6SM SCT050 BKN100
     FM030000 18007KT P6SM SCT120
     FM031700 18012G20KT P6SM SCT120=

USA.gov is the U.S. government's official web portal to all federal, state and local government web resources and services.